ONEWEB-0086, 45456

Orbit data source: Space-Track

ONEWEB-0086, 45456 is a payload satellite owned by One Web (UK) in LEO that was launched on Sat, 21 Mar 2020 UTC via a SOYUZ-2-1B launch vehicle from the Tyuratam Missile And Space Complex (TTMTR). Payload-class satellites include a variety of spacecraft equipped with specific instruments for various scientific and technological missions. These include communications satellites like Starlink; space stations such as the ISS; scientific satellites like the Hubble; Earth observation satellites from companies like Planet Labs, Umbra, and HawkEye 360; GPS; miniature CubeSats for education and research; and military/defense satellites.

Loading next visibility...
Identifier
45456, 2020-020AJ
Orbit
LEO
Last TLE update
15 hours ago
Origin
Manufacturer
One Web
Mission
Operational Commercial Communications
Bus & Motor
ARROW, Unknown motor
Mass
148 kg wet, ~140 kg dry
Launch date (UTC)
2020-03-21 (5 years ago)
Launch vehicle
SOYUZ-2-1B
Launch site
Tyuratam Missile And Space Complex (TTMTR)
Object type
Payload
Rocket body
Debris
Shape & HBR
Trap Box + 2 Pan, 5 m
Radar Cross Section
2.957 m², Large (>1 m²)

Expand to show TLE details & history

TLE from 15 hours ago
0 ONEWEB-0086
1 45456U 20020AJ  25181.49997068  .00000442  00000-0  12118-2 0  9992
2 45456  87.8840  91.1489 0001777  88.4261 271.7070 13.11417682256511
Epoch: 2025-06-30T11:59Z
TLE epoch observation values (Epoch: 2025-06-30T11:59:57.466Z)
Latitude
-0.00009°
Longitude
-7.64943°
Altitude
1,220.529 km
Speed
7.244 km/s
True Right ascension
06h 04m 35s
True Declination
0° 00' 00"
Sunlit
Object was in daylight at epoch
Visualization orbit readout
Latitude
62.11872°
Longitude
-3.78927°
Altitude
1,227.161 km
Speed
7.247 km/s
Apparent Right ascension
04h 08m 15s
Apparent Declination
19° 20' 16"
Sunlit
Object is in daylight
Visualization observer readout
Local Sidereal Time
14:35:01
Azimuth
335.254° NNW
Elevation
-26.883°
Doppler factor
1
Orbital elements
Apogee altitude
1,216.147 km
Perigee altitude
1,213.449 km
Semi-major axis
7,592.935 km
Eccentricity
0.00018
Inclination
87.884°
RAAN
91.1489°
Arg. of periapsis
88.4261°
True anomaly
Unknown
Mean anomaly
271.707°
Eccentric anomaly
Unknown
Mean motion
3.28041 °/min
Orbital period
109.74 mins
BSTAR
0.0012118
Loading maneuver chart data...
Loading SW <> Apogee altitude chart data...
Loading historical data...
Loading historical data...
Loading historical data...
Loading historical data...
Loading historical data...
Loading historical data...
Loading historical data...

ONEWEB-0086 Visibility forecast

Observer location: undefined°, undefined°

Span
Click to sort rows by Start time (UTC) header in descending order
Start Az.
Max El. time (UTC)
Max El. Az.
Max El.
End time (UTC)
End Az.
12 mins2025-07-01 05:04:48.721Z19.378° NNE2025-07-01 05:10:48.721Z75.104° E27.206°2025-07-01 05:16:48.721Z136.438° SSE
12 mins2025-07-01 06:55:48.721Z342.513° N2025-07-01 07:00:48.721Z285.298° WNW35.992°2025-07-01 07:07:48.721Z207.577° SW
10 mins2025-07-01 17:25:48.721Z131.769° SE2025-07-01 17:30:48.721Z71.806° E29.447°2025-07-01 17:35:48.721Z22.216° NNE
12 mins2025-07-01 19:14:48.721Z214.799° SW2025-07-01 19:19:48.721Z273.058° WNW33.719°2025-07-01 19:26:48.721Z346.667° N
|